Time,TemperatureF,DewpointF,PressureIn,WindDirection,WindDirectionDegrees,WindSpeedMPH,WindSpeedGustMPH,Humidity,HourlyPrecipIn,Conditions,Clouds,dailyrainin,SoftwareType,DateUTC
2013-11-19 00:08:00,53.2,35.0,20.85,WNW,298,8.0,13.0,49,0.00,,,0.01,weatherlink.com 1.10,2013-11-19 02:08:00,
2013-11-19 00:24:00,52.4,34.0,31.93,WNW,298,7.0,13.0,50,0.00,,,0.01,weatherlink.com 1.10,2013-11-19 02:24:00,
2013-11-19 00:40:00,52.8,35.0,31.93,NW,319,8.0,11.0,50,0.00,,,0.01,weatherlink.com 1.10,2013-11-19 02:40:00,
2013-11-19 00:56:00,52.7,35.0,31.93,NNW,341,0.0,12.0,51,0.00,,,0.01,weatherlink.com 1.10,2013-11-19 02:56:00,
2013-11-19 01:12:00,51.6,35.0,31.93,NW,315,5.0,6.0,52,0.00,,,0.01,weatherlink.com 1.10,2013-11-19 03:12:00,
2013-11-19 01:28:00,51.4,35.0,31.93,NW,315,4.0,6.0,53,0.00,,,0.01,weatherlink.com 1.10,2013-11-19 03:28:00,
2013-11-19 01:44:00,50.9,34.0,31.93,NW,317,6.0,9.0,53,0.00,,,0.01,weatherlink.com 1.10,2013-11-19 03:44:00,
2013-11-19 02:00:00,50.6,35.0,31.93,NW,322,3.0,6.0,54,0.00,,,0.01,weatherlink.com 1.10,2013-11-19 04:00:00,
2013-11-19 02:17:00,50.4,34.0,31.93,NNW,327,4.0,7.0,53,0.00,,,0.01,weatherlink.com 1.10,2013-11-19 04:17:00,
2013-11-19 02:33:00,49.3,33.0,31.93,NNW,332,3.0,5.0,54,0.00,,,0.01,weatherlink.com 1.10,2013-11-19 04:33:00,
2013-11-19 02:49:00,49.0,33.0,31.93,NW,324,3.0,7.0,53,0.00,,,0.01,weatherlink.com 1.10,2013-11-19 04:49:00,
2013-11-19 03:05:00,48.3,32.0,0.00,NW,325,5.0,6.0,54,0.00,,,0.00,weatherlink.com 1.10,2013-11-19 05:05:00,
2013-11-19 03:21:00,47.4,32.0,31.86,NNW,336,0.0,6.0,54,0.00,,,0.00,weatherlink.com 1.10,2013-11-19 05:21:00,
2013-11-19 03:37:00,44.5,32.0,31.86,NNW,336,0.0,0.0,61,0.00,,,0.00,weatherlink.com 1.10,2013-11-19 05:37:00,
2013-11-19 03:53:00,44.8,30.0,31.86,NNW,336,2.0,3.0,57,0.00,,,0.00,weatherlink.com 1.10,2013-11-19 05:53:00,
2013-11-19 04:09:00,46.0,30.0,31.86,NW,326,2.0,7.0,54,0.00,,,0.00,weatherlink.com 1.10,2013-11-19 06:09:00,
2013-11-19 04:25:00,46.3,30.0,31.86,NW,326,3.0,5.0,52,0.00,,,0.00,weatherlink.com 1.10,2013-11-19 06:25:00,
2013-11-19 04:41:00,45.0,30.0,31.86,NW,325,4.0,6.0,55,0.00,,,0.00,weatherlink.com 1.10,2013-11-19 06:41:00,
2013-11-19 04:57:00,44.1,30.0,31.86,NW,325,2.0,5.0,57,0.00,,,0.00,weatherlink.com 1.10,2013-11-19 06:57:00,
2013-11-19 05:13:00,43.8,29.0,31.86,NW,325,3.0,4.0,55,0.00,,,0.00,weatherlink.com 1.10,2013-11-19 07:13:00,
2013-11-19 05:30:00,45.0,29.0,31.86,NNW,330,2.0,7.0,53,0.00,,,0.00,weatherlink.com 1.10,2013-11-19 07:30:00,
2013-11-19 05:46:00,43.9,29.0,31.86,NNW,332,2.0,3.0,55,0.00,,,0.00,weatherlink.com 1.10,2013-11-19 07:46:00,
2013-11-19 06:02:00,44.8,29.0,31.73,NNW,327,1.0,3.0,54,0.00,,,0.00,weatherlink.com 1.10,2013-11-19 08:02:00,
2013-11-19 06:18:00,43.4,29.0,31.73,NNW,327,0.0,2.0,57,0.00,,,0.00,weatherlink.com 1.10,2013-11-19 08:18:00,
2013-11-19 06:34:00,42.8,29.0,31.73,NNW,333,0.0,1.0,58,0.00,,,0.00,weatherlink.com 1.10,2013-11-19 08:34:00,
2013-11-19 06:50:00,41.0,29.0,31.73,NNW,333,1.0,3.0,62,0.00,,,0.00,weatherlink.com 1.10,2013-11-19 08:50:00,
2013-11-19 07:06:00,37.7,29.0,31.73,NNW,333,3.0,3.0,71,0.00,,,0.00,weatherlink.com 1.10,2013-11-19 09:06:00,
2013-11-19 07:23:00,39.3,29.0,31.73,NNW,332,2.0,5.0,65,0.00,,,0.00,weatherlink.com 1.10,2013-11-19 09:23:00,
2013-11-19 07:39:00,41.2,28.0,31.73,NW,323,4.0,6.0,59,0.00,,,0.00,weatherlink.com 1.10,2013-11-19 09:39:00,
2013-11-19 07:55:00,42.5,27.0,31.73,NW,313,3.0,7.0,55,0.00,,,0.00,weatherlink.com 1.10,2013-11-19 09:55:00,
2013-11-19 08:11:00,42.6,27.0,31.73,NW,313,3.0,6.0,54,0.00,,,0.00,weatherlink.com 1.10,2013-11-19 10:11:00,
2013-11-19 08:27:00,42.4,27.0,31.73,NW,323,6.0,6.0,54,0.00,,,0.00,weatherlink.com 1.10,2013-11-19 10:27:00,
2013-11-19 08:43:00,41.4,26.0,31.73,NW,322,2.0,5.0,55,0.00,,,0.00,weatherlink.com 1.10,2013-11-19 10:43:00,
2013-11-19 08:59:00,40.9,26.0,31.73,NNW,336,2.0,10.0,56,0.00,,,0.00,weatherlink.com 1.10,2013-11-19 10:59:00,
2013-11-19 09:15:00,39.2,28.0,31.73,NNW,330,1.0,3.0,64,0.00,,,0.00,weatherlink.com 1.10,2013-11-19 11:15:00,
2013-11-19 09:31:00,35.3,28.0,31.73,NNW,328,0.0,3.0,74,0.00,,,0.00,weatherlink.com 1.10,2013-11-19 11:31:00,
2013-11-19 09:47:00,36.2,26.0,31.73,NNW,328,0.0,3.0,66,0.00,,,0.00,weatherlink.com 1.10,2013-11-19 11:47:00,
2013-11-19 10:03:00,36.1,26.0,31.73,NNW,329,2.0,4.0,67,0.00,,,0.00,weatherlink.com 1.10,2013-11-19 12:03:00,
2013-11-19 10:20:00,34.4,26.0,31.73,NNW,329,0.0,2.0,71,0.00,,,0.00,weatherlink.com 1.10,2013-11-19 12:20:00,
2013-11-19 10:36:00,33.9,27.0,31.73,NNW,329,0.0,3.0,75,0.00,,,0.00,weatherlink.com 1.10,2013-11-19 12:36:00,
2013-11-19 10:52:00,34.4,27.0,31.73,NNW,329,3.0,3.0,74,0.00,,,0.00,weatherlink.com 1.10,2013-11-19 12:52:00,
2013-11-19 11:08:00,36.6,30.0,31.73,NNW,329,0.0,1.0,78,0.00,,,0.00,weatherlink.com 1.10,2013-11-19 13:08:00,
2013-11-19 11:26:00,39.8,30.0,31.73,NNW,337,0.0,3.0,68,0.00,,,0.00,weatherlink.com 1.10,2013-11-19 13:26:00,
2013-11-19 11:42:00,44.5,35.0,31.73,North,360,1.0,3.0,68,0.00,,,0.00,weatherlink.com 1.10,2013-11-19 13:42:00,
2013-11-19 11:58:00,46.0,27.0,31.73,NNW,335,1.0,10.0,48,0.00,,,0.00,weatherlink.com 1.10,2013-11-19 13:58:00,
2013-11-19 12:15:00,46.7,26.0,31.73,NNW,342,5.0,11.0,44,0.00,,,0.00,weatherlink.com 1.10,2013-11-19 14:15:00,
2013-11-19 12:31:00,47.8,26.0,31.73,NE,43,6.0,11.0,43,0.00,,,0.00,weatherlink.com 1.10,2013-11-19 14:31:00,
2013-11-19 12:47:00,48.5,26.0,31.73,ENE,63,3.0,9.0,42,0.00,,,0.00,weatherlink.com 1.10,2013-11-19 14:47:00,
2013-11-19 13:03:00,49.4,27.0,31.73,NE,40,4.0,8.0,41,0.00,,,0.00,weatherlink.com 1.10,2013-11-19 15:03:00,
2013-11-19 13:19:00,49.7,26.0,31.73,NE,49,5.0,11.0,40,0.00,,,0.00,weatherlink.com 1.10,2013-11-19 15:19:00,
2013-11-19 13:35:00,49.7,26.0,31.73,ENE,67,8.0,10.0,40,0.00,,,0.00,weatherlink.com 1.10,2013-11-19 15:35:00,
2013-11-19 13:51:00,50.6,26.0,32.00,NE,40,4.0,9.0,38,0.00,,,0.00,weatherlink.com 1.10,2013-11-19 15:51:00,
2013-11-19 14:07:00,51.1,26.0,32.00,NNW,327,7.0,11.0,38,0.00,,,0.00,weatherlink.com 1.10,2013-11-19 16:07:00,
2013-11-19 14:24:00,51.8,26.0,32.00,NNE,31,3.0,8.0,36,0.00,,,0.00,weatherlink.com 1.10,2013-11-19 16:24:00,
2013-11-19 14:41:00,51.8,26.0,32.00,ESE,114,10.0,12.0,37,0.00,,,0.00,weatherlink.com 1.10,2013-11-19 16:41:00,
2013-11-19 14:57:00,51.8,28.0,32.00,East,82,5.0,11.0,39,0.00,,,0.00,weatherlink.com 1.10,2013-11-19 16:57:00,
2013-11-19 15:13:00,52.0,26.0,32.00,SE,144,3.0,9.0,36,0.00,,,0.00,weatherlink.com 1.10,2013-11-19 17:13:00,
2013-11-19 15:30:00,52.8,28.0,32.00,SE,128,2.0,9.0,38,0.00,,,0.00,weatherlink.com 1.10,2013-11-19 17:30:00,
2013-11-19 15:46:00,52.7,28.0,32.00,ESE,107,3.0,8.0,38,0.00,,,0.00,weatherlink.com 1.10,2013-11-19 17:46:00,
2013-11-19 16:02:00,53.5,28.0,32.00,SSE,155,3.0,8.0,37,0.00,,,0.00,weatherlink.com 1.10,2013-11-19 18:02:00,
2013-11-19 16:18:00,53.4,27.0,32.00,ENE,78,5.0,10.0,36,0.00,,,0.00,weatherlink.com 1.10,2013-11-19 18:18:00,
2013-11-19 16:34:00,53.7,27.0,32.00,North,350,3.0,8.0,36,0.00,,,0.00,weatherlink.com 1.10,2013-11-19 18:34:00,
2013-11-19 16:50:00,54.5,28.0,32.00,ENE,63,3.0,7.0,36,0.00,,,0.00,weatherlink.com 1.10,2013-11-19 18:50:00,
2013-11-19 17:06:00,54.8,28.0,32.00,South,177,4.0,4.0,35,0.00,,,0.00,weatherlink.com 1.10,2013-11-19 19:06:00,
2013-11-19 17:23:00,55.0,28.0,32.00,South,187,1.0,6.0,35,0.00,,,0.00,weatherlink.com 1.10,2013-11-19 19:23:00,
2013-11-19 17:39:00,54.8,27.0,32.00,NNW,338,3.0,10.0,34,0.00,,,0.00,weatherlink.com 1.10,2013-11-19 19:39:00,
2013-11-19 17:55:00,54.9,27.0,32.00,ENE,61,2.0,9.0,34,0.00,,,0.00,weatherlink.com 1.10,2013-11-19 19:55:00,
2013-11-19 18:11:00,55.2,28.0,32.00,ESE,105,2.0,5.0,35,0.00,,,0.00,weatherlink.com 1.10,2013-11-19 20:11:00,
2013-11-19 18:27:00,53.6,28.0,32.00,ESE,112,3.0,7.0,37,0.00,,,0.00,weatherlink.com 1.10,2013-11-19 20:27:00,
2013-11-19 18:43:00,53.8,28.0,32.00,SE,134,2.0,7.0,37,0.00,,,0.00,weatherlink.com 1.10,2013-11-19 20:43:00,
2013-11-19 18:59:00,52.6,29.0,32.00,SE,130,4.0,4.0,40,0.00,,,0.00,weatherlink.com 1.10,2013-11-19 20:59:00,
2013-11-19 19:15:00,52.5,29.0,32.00,ESE,122,2.0,4.0,41,0.00,,,0.00,weatherlink.com 1.10,2013-11-19 21:15:00,
2013-11-19 19:31:00,52.5,29.0,32.00,ESE,102,3.0,8.0,40,0.00,,,0.00,weatherlink.com 1.10,2013-11-19 21:31:00,
2013-11-19 19:47:00,51.6,28.0,32.00,ESE,115,1.0,4.0,40,0.00,,,0.00,weatherlink.com 1.10,2013-11-19 21:47:00,
2013-11-19 20:03:00,49.9,29.0,32.00,ESE,115,1.0,1.0,45,0.00,,,0.00,weatherlink.com 1.10,2013-11-19 22:03:00,
2013-11-19 20:20:00,48.6,29.0,32.00,ESE,115,0.0,3.0,46,0.00,,,0.00,weatherlink.com 1.10,2013-11-19 22:20:00,
2013-11-19 20:36:00,47.5,29.0,32.00,ESE,115,0.0,0.0,48,0.00,,,0.00,weatherlink.com 1.10,2013-11-19 22:36:00,
2013-11-19 20:52:00,46.1,28.0,32.00,ESE,115,0.0,0.0,50,0.00,,,0.00,weatherlink.com 1.10,2013-11-19 22:52:00,
2013-11-19 21:08:00,44.5,29.0,32.00,ESE,114,0.0,0.0,54,0.00,,,0.00,weatherlink.com 1.10,2013-11-19 23:08:00,
2013-11-19 21:24:00,43.7,29.0,32.00,ESE,115,0.0,1.0,57,0.00,,,0.00,weatherlink.com 1.10,2013-11-19 23:24:00,
2013-11-19 21:40:00,42.2,29.0,32.00,ESE,115,0.0,3.0,60,0.00,,,0.00,weatherlink.com 1.10,2013-11-19 23:40:00,
2013-11-19 21:56:00,40.5,30.0,32.03,ESE,115,0.0,0.0,66,0.00,,,0.00,weatherlink.com 1.10,2013-11-19 23:56:00,
2013-11-19 22:12:00,40.2,31.0,32.03,ESE,114,0.0,1.0,69,0.00,,,0.00,weatherlink.com 1.10,2013-11-20 00:12:00,
2013-11-19 22:32:00,40.4,31.0,32.03,ESE,114,0.0,3.0,70,0.00,,,0.00,weatherlink.com 1.10,2013-11-20 00:32:00,
2013-11-19 22:48:00,39.7,32.0,32.03,ESE,115,0.0,2.0,73,0.00,,,0.00,weatherlink.com 1.10,2013-11-20 00:48:00,
2013-11-19 23:04:00,39.4,31.0,32.03,ESE,114,1.0,1.0,73,0.00,,,0.00,weatherlink.com 1.10,2013-11-20 01:04:00,
2013-11-19 23:20:00,40.2,32.0,32.03,ESE,114,0.0,1.0,72,0.00,,,0.00,weatherlink.com 1.10,2013-11-20 01:20:00,
2013-11-19 23:36:00,39.4,32.0,32.03,ESE,114,2.0,3.0,74,0.00,,,0.00,weatherlink.com 1.10,2013-11-20 01:36:00,
2013-11-19 23:52:00,39.4,33.0,32.03,ESE,114,0.0,0.0,77,0.00,,,0.00,weatherlink.com 1.10,2013-11-20 01:52:00,